Location: Borojevi?i
(45.0486°N, 16.2297°E)
Time: 17:27:53
(UTC+00:00)

NOSS 3-2 (A) - Pass Details

Date: 08 August 2020
Orbit: 795 x 1413 km, 63.4° (Epoch: 19 September)

Event Time Altitude Azimuth Distance (km) Brightness Sun altitude
Exits shadow 19:37:08 - 177° (S) 2,691 5.4 -13.6°
Reaches altitude 10° 19:37:55 10° 173° (S) 2,432 5.2 -13.7°
Maximum altitude 19:42:45 31° 113° (ESE) 1,507 4.0 -14.4°
Drops below altitude 10° 19:48:06 10° 53° (NE) 2,712 5.7 -15.1°
Sets 19:51:07 0° 44° (NE) 3,766 6.6 -15.5°
